Tracking 29892 objects as of 21-Nov-2024
HD Live streaming from Space Station
objects crossing your sky now

COSMOS 1275 DEB

Track COSMOS 1275 DEB now!
10-day predictions


NORAD ID: 12650
Int'l Code: 1981-053E
Perigee: 923.0 km
Apogee: 1,017.2 km
Inclination: 82.9 °
Period: 104.3 minutes
Semi major axis: 7341 km
RCS: 0.6166 m2 (medium)
Launch date: June 4, 1981
Source: Commonwealth of Independent States (former USSR) (CIS)
Launch site: PLESETSK MISSILE AND SPACE COMPLEX (PKMTR)

Note: This is SATELLITE DEBRIS
Your satellite tracking list
Your tracking list is empty




NASA's NSSDC Master Catalog

Two Line Element Set (TLE):
1 12650U 81053E   24325.89527741  .00000999  00000-0  92983-3 0  9991
2 12650  82.9331 300.7448 0064163   1.3625  17.2007 13.80258738172412
Source of the keplerian elements: AFSPC